World > North America > United States > Texas > Hockley  

Hockley, TX Hourly Weather Updates

Feedback E-mail the Weather

Quick Clicks

Hockley, TX Weather Maps

°F °C°F °C
Hockley Weather Map
UTC Time: 5/23/2024, 22:03
Your Time:

Hockley, TX Regional Weather

Expires:202405232300;;742250
ASUS44 KSJT 232200
RWRSJT
WEST CENTRAL TEXAS REGIONAL WEATHER ROUNDUP
NATIONAL WEATHER SERVICE SAN ANGELO TX
500 PM CDT THU MAY 23 2024

NOTE: "FAIR" INDICATES FEW OR NO CLOUDS BELOW 12,000 FEET WITH NO
SIGNIFICANT WEATHER AND/OR OBSTRUCTIONS TO VISIBILITY.


TXZ163-177-195>197-199-213-226-237-232300-
SOUTHEAST TEXAS
  
CITY           SKY/WX    TMP DP  RH WIND       PRES   REMARKS
COLLEGE STN    MOSUNNY   91  75  59 SE13      29.77F TC  33           
CALDWELL       NOT AVBL                                               
CROCKETT       NOT AVBL                                               
BRENHAM        CLOUDY    91  74  59 S12G18    29.78F TC  33           
HUNTSVILLE     PTSUNNY   86  77  74 E9        29.80F TC  30           
CONROE         PTSUNNY   88  76  67 SE13      29.81F HAZE    TC  31   
HOUSTON BUSH   PTSUNNY   90  73  57 S13       29.80F TC  32           
HOUSTON HOBBY  MOSUNNY   89  74  60 S16       29.80F TC  32           
PERLAND        CLOUDY    87  76  69 S10       29.83F TC  31           
WHARTON        PTSUNNY   85  85  99 SE16G22   29.80F TC  29           
$$


SKY/WX - Weather  TMP - Temperature  DP - Dew Point  RH - Humidity
WIND - Wind Direction/Speed PRES - Barometric Pressure VSB - Visibility
WCI - Wind Chill Index E13G22 Wind - East Wind 13 mph/Gusts of 22 mph

Trending Headlines

Trending Entertainment Headlines

Hockley Radar Loop

Use the map search tool if you want to place a location marker on the radar map...

Hockley Quick Facts

National Two Day Weather Forecast


E-mail the Hockley Weather Forecast

Voice your opinion or tell us about page issues...